[Iaude] MPEC C170: 2024 CL5 [a=1.10,e=0.44,i=4.2,H=25.9]
    mpec at cfa.harvard.edu 
    mpec at cfa.harvard.edu
       
    Wed Feb 14 16:38:09 EST 2024
    
    
  
M.P.E.C. 2024-C170                            Issued 2024 February 14, 21:36 UT
     The Minor Planet Electronic Circulars contain information on unusual
         minor planets, routine data on comets and natural satellites,
         and occasional editorial announcements.  They are published
    on behalf of Division F of the International Astronomical Union by the
          Minor Planet Center, Smithsonian Astrophysical Observatory,
                          Cambridge, MA 02138, U.S.A.
			  
             Prepared using the Tamkin Foundation Computer Network
                              MPC at CFA.HARVARD.EDU
            URL https://www.minorplanetcenter.net/    ISSN 1523-6714
                                    2024 CL5                                    
Observations:
     K24C05L* C2024 02 13.46079709 48 54.598+01 06 21.44         21.26wXEC170F52
     K24C05L  C2024 02 13.47194709 48 50.675+01 06 25.61         20.86wXEC170F52
     K24C05L  C2024 02 13.47323809 48 50.229+01 06 26.18         20.66wXEC170F52
     K24C05L  C2024 02 13.48431509 48 46.328+01 06 30.15         21.18wXEC170F52
     K24C05L  C2024 02 13.48560809 48 45.853+01 06 30.77         20.93wXEC170F52
     K24C05L  C2024 02 13.49664909 48 41.960+01 06 34.83         21.16wXEC170F52
     K24C05L  C2024 02 13.49794209 48 41.491+01 06 35.45         21.11wXEC170F52
     K24C05L  C2024 02 13.60812809 48 03.151+01 07 16.85         20.84GVEC170F52
     K24C05L KC2024 02 13.90175709 46 38.01 +01 08 29.2          20.6 GVEC170L01
     K24C05L KC2024 02 13.90428109 46 37.06 +01 08 30.3          20.3 GVEC170L01
     K24C05L KC2024 02 13.90680509 46 36.21 +01 08 31.2          20.4 GVEC170L01
     K24C05L KB2024 02 13.94493509 46 23.32 +01 08 48.7          20.5 GXEC170I93
     K24C05L KB2024 02 13.94736709 46 22.43 +01 08 50.4          20.3 GXEC170I93
     K24C05L KB2024 02 13.94952009 46 21.61 +01 08 51.4          20.1 GXEC170I93
     K24C05L KB2024 02 13.97290509 46 12.91 +01 09 02.8          19.6 GXEC170958
     K24C05L KB2024 02 13.97662709 46 11.50 +01 09 04.0          19.8 GXEC170958
     K24C05L KB2024 02 13.98009 09 46 12.46 +01 09 36.9                qEC170Y66
     K24C05L KB2024 02 13.98034609 46 10.01 +01 09 06.8          19.9 GXEC170958
     K24C05L KB2024 02 13.98093 09 46 12.18 +01 09 37.3                qEC170Y66
     K24C05L KB2024 02 13.98176 09 46 11.85 +01 09 37.2                qEC170Y66
     K24C05L KB2024 02 13.98259 09 46 11.50 +01 09 37.9                qEC170Y66
     K24C05L !C2024 02 14.09930 09 45 25.06 +01 10 29.9          20.1 GVEC170J04
     K24C05L !C2024 02 14.10619 09 45 22.29 +01 10 33.2          20.7 GVEC170J04
     K24C05L KC2024 02 14.25230 09 44 33.33 +01 11 19.7          20.7 GVEC170H36
     K24C05L KC2024 02 14.25800 09 44 31.02 +01 11 21.3          20.7 GVEC170H36
     K24C05L KC2024 02 14.26371 09 44 28.66 +01 11 25.0          20.4 GVEC170H36
     K24C05L KC2024 02 14.86018109 40 35.14 +01 16 31.0          20.1 GVEC170104
     K24C05L KC2024 02 14.87525109 40 28.08 +01 16 39.6          20.4 GVEC170104
Observer details:
104 San Marcello Pistoiese.  Observers P. Bacci, M. Maestripieri.  Measurers
    P. Bacci, L. Tesi, G. Fagioli.  0.60-m F4 Reflector + CCD.
958 Observatoire de Dax.  Observer P. Dupouy.  0.50-m f/4.5 Reflector + CMO.
F52 Pan-STARRS 2, Haleakala.  Observers J. Herman, T. Lowe, P. Minguez, A.
    Schultz, I. Smith.  Measurers K. Chambers, T. de Boer, J. Fairlamb, H.
    Gao, M. Huber, C.-C. Lin, E. Magnier, Y. Ramanjooloo, R. Wainscoat, R.
    Weryk.  1.8-m Ritchey-Chretien + CCD.
H36 Sandlot Observatory, Scranton.  Observer G. Hug.  .56 meter Reflector +
    CCD.
I93 St Pardon de Conques.  Observer F. Losse.  0.40-m f/3.7 reflector + CCD.
J04 ESA Optical Ground Station, Tenerife.  Observers P. Ruiz, M. Micheli, F.
    Ocana, L. Conversi.  Measurers R. Kresken, M. Micheli, F. Ocana, A.
    Knofel, M. Busch, E. Schwab.  1.0-m f/4.4 reflector + CCD.
L01 Visnjan Observatory, Tican.  Observer K. Korlevic.  1.0-m f/2.9 reflector
    + CCD.
Y66 Two-Meter Twin Telescope, TTT2, Teide.  Observer M. Serra.  Measurer M.
    Hierro.  0.80-m f/4.38 reflector + CMO.
Orbital elements:
2024 CL5                                                 Earth MOID = 0.0033 AU
Epoch 2023 Sept. 13.0 TT = JDT 2460200.5                MPC                     
M 170.53589              (2000.0)            P               Q                  
n   0.85090176     Peri.  101.13723     -0.25425978     +0.96659641             
a   1.1029346      Node   154.06361     -0.91365925     -0.22911480             
e   0.4437754      Incl.    4.23526     -0.31714151     -0.11488164             
P   1.16           H   25.92          G   0.15           U   8                  
Residuals in seconds of arc
240213 F52  0.2-  0.1+    240213 L01  0.8+  0.2-    240213 Y66  0.2-  0.5+
240213 F52  0.0   0.1+    240213 I93  0.6-  0.4-    240214 J04  0.1-  0.0
240213 F52  0.1+  0.2+    240213 I93  0.2-  0.3+    240214 J04  0.0   0.2+
240213 F52  0.2+  0.0     240213 I93  0.3-  0.3+    240214 H36  0.5-  0.1-
240213 F52  0.0   0.2+    240213 958  0.7+  0.0     240214 H36  0.3+  1.3-
240213 F52  0.0   0.1+    240213 958  0.9+  0.4-    240214 H36  0.4+  0.3-
240213 F52  0.2-  0.2+    240213 Y66  0.3-  0.6+    240214 104  0.2-  0.2+
240213 F52  0.2+  0.1+    240213 958  0.1-  0.7+    240214 104  0.2+  0.1-
240213 L01  0.4-  0.1-    240213 Y66  0.4+  0.6+
240213 L01  0.6-  0.0     240213 Y66  0.2+  0.2+
Ephemeris:
2024 CL5                 a,e,i = 1.10, 0.44, 4                   q = 0.6135
Date    TT    R. A. (2000) Decl.     Delta      r    Elong.  Phase     V
2024 01 15    10 11 55.9 +02 29 18   0.3332  1.2551   139.3    30.7    25.3
...
2024 01 30    10 13 19.5 +01 11 09   0.1906  1.1579   152.9    22.8    23.7
...
2024 02 07    10 06 51.2 +00 53 05   0.1208  1.1012   161.1    16.8    22.4
...
2024 02 13    09 51 06.9 +01 04 23   0.07112 1.0567   167.2    11.9    21.0
2024 02 14    09 46 02.2 +01 10 48   0.06305 1.0491   167.8    11.5    20.7
2024 02 15    09 39 28.9 +01 19 42   0.05506 1.0415   168.0    11.4    20.4
...
2024 02 21    06 01 50.1 +05 33 05   0.01324 0.9949   117.5    61.9    18.7
...
2024 02 29    23 15 21.5 +01 10 11   0.06087 0.9311    12.0   167.3    34.3
...
2024 03 15    22 45 49.0 -00 08 15   0.1910  0.8102    13.7   163.1    34.1
A. U. Tomatic                (C) Copyright 2024 MPC           M.P.E.C. 2024-C170
    
    
More information about the Iaude
mailing list